TimeIST,TemperatureF,Dew PointF,Humidity,Sea Level PressureIn,VisibilityMPH,Wind Direction,Wind SpeedMPH,Gust SpeedMPH,PrecipitationIn,Events,Conditions,WindDirDegrees,DateUTC
12:20 AM,82.4,78.8,89,29.74,1.7,Calm,Calm,-,N/A,,Haze,0,2013-09-12 18:50:00
12:50 AM,82.4,78.8,89,29.74,1.7,Calm,Calm,-,N/A,,Haze,0,2013-09-12 19:20:00
1:20 AM,82.4,78.8,89,29.74,1.7,Calm,Calm,-,N/A,,Haze,0,2013-09-12 19:50:00
1:50 AM,82.4,78.8,89,29.74,1.7,West,3.5,-,N/A,,Haze,270,2013-09-12 20:20:00
2:20 AM,82.4,78.8,89,29.74,1.7,West,3.5,-,N/A,,Haze,270,2013-09-12 20:50:00
2:50 AM,82.4,78.8,89,29.71,1.7,West,4.6,-,N/A,,Haze,270,2013-09-12 21:20:00
3:20 AM,82.4,78.8,89,29.71,1.7,West,4.6,-,N/A,,Haze,270,2013-09-12 21:50:00
3:50 AM,82.4,78.8,89,29.74,1.7,Calm,Calm,-,N/A,,Haze,0,2013-09-12 22:20:00
4:20 AM,82.4,78.8,89,29.74,1.7,Calm,Calm,-,N/A,,Haze,0,2013-09-12 22:50:00
4:50 AM,82.4,78.8,89,29.74,1.7,Calm,Calm,-,N/A,,Haze,0,2013-09-12 23:20:00
5:20 AM,82.4,78.8,89,29.77,1.7,Calm,Calm,-,N/A,,Haze,0,2013-09-12 23:50:00
5:50 AM,82.4,78.8,89,29.77,1.7,Calm,Calm,-,N/A,,Haze,0,2013-09-13 00:20:00
6:20 AM,84.2,80.6,89,29.77,1.7,WNW,3.5,-,N/A,,Haze,300,2013-09-13 00:50:00
6:50 AM,84.2,80.6,89,29.77,1.7,NW,4.6,-,N/A,,Haze,320,2013-09-13 01:20:00
7:20 AM,86.0,80.6,84,29.77,1.7,NW,4.6,-,N/A,,Haze,320,2013-09-13 01:50:00
7:50 AM,87.8,80.6,79,29.80,1.7,NW,6.9,-,N/A,,Haze,320,2013-09-13 02:20:00
8:20 AM,87.8,80.6,79,29.80,-9999.0,NW,5.8,-,N/A,,Haze,320,2013-09-13 02:50:00
8:30 AM,90,81,69,29.81,1,WNW,1.2,,,,Haze,290,2013-09-13 03:00:00
8:50 AM,89.6,80.6,75,29.80,-9999.0,NNW,4.6,-,N/A,,Haze,340,2013-09-13 03:20:00
9:20 AM,89.6,78.8,70,29.80,2.2,NNW,4.6,-,N/A,,Haze,330,2013-09-13 03:50:00
9:50 AM,91.4,78.8,66,29.77,2.2,NNE,5.8,-,N/A,,Haze,20,2013-09-13 04:20:00
10:20 AM,91.4,77.0,63,29.77,2.2,NNW,4.6,-,N/A,,Haze,330,2013-09-13 04:50:00
10:50 AM,91.4,77.0,63,29.74,-9999.0,North,5.8,-,N/A,,Haze,10,2013-09-13 05:20:00
11:20 AM,93.2,77.0,59,29.74,-9999.0,North,5.8,-,N/A,,Haze,10,2013-09-13 05:50:00
11:30 AM,93,79,55,29.77,1,ENE,1.2,,,,Haze,70,2013-09-13 06:00:00
11:50 AM,93.2,78.8,63,29.74,-9999.0,NE,4.6,-,N/A,,Haze,50,2013-09-13 06:20:00
12:20 PM,93.2,78.8,63,29.71,-9999.0,NNE,5.8,-,N/A,,Haze,20,2013-09-13 06:50:00
12:50 PM,95.0,78.8,59,29.68,-9999.0,NE,5.8,-,N/A,,Haze,50,2013-09-13 07:20:00
1:20 PM,95.0,80.6,63,29.68,-9999.0,NNE,3.5,-,N/A,,Haze,20,2013-09-13 07:50:00
1:50 PM,95.0,80.6,63,29.65,-9999.0,NE,4.6,-,N/A,,Haze,50,2013-09-13 08:20:00
2:20 PM,95.0,78.8,59,29.65,-9999.0,East,4.6,-,N/A,,Mostly Cloudy,90,2013-09-13 08:50:00
2:30 PM,94,80,55,29.66,1,East,3.5,,,,Haze,90,2013-09-13 09:00:00
2:50 PM,93.2,78.8,63,29.62,2.2,SE,3.5,-,N/A,,Haze,140,2013-09-13 09:20:00
3:20 PM,93.2,78.8,63,29.62,2.2,SE,3.5,-,N/A,,Haze,140,2013-09-13 09:50:00
3:50 PM,93.2,78.8,63,29.62,2.2,SSE,3.5,-,N/A,,Haze,150,2013-09-13 10:20:00
4:20 PM,93.2,78.8,63,29.62,2.2,SSE,3.5,-,N/A,,Haze,150,2013-09-13 10:50:00
4:50 PM,93.2,78.8,63,29.62,2.2,SSE,3.5,-,N/A,,Haze,150,2013-09-13 11:20:00
5:20 PM,91.4,78.8,66,29.62,2.2,SSE,3.5,-,N/A,,Haze,160,2013-09-13 11:50:00
5:30 PM,92,80,61,29.65,1,NE,2.3,,,,Haze,50,2013-09-13 12:00:00
5:50 PM,91.4,78.8,66,29.62,2.2,ESE,3.5,-,N/A,,Haze,120,2013-09-13 12:20:00
6:20 PM,91.4,78.8,66,29.62,2.2,Calm,Calm,-,N/A,,Haze,0,2013-09-13 12:50:00
6:50 PM,89.6,78.8,70,29.65,2.2,Calm,Calm,-,N/A,,Haze,0,2013-09-13 13:20:00
7:20 PM,89.6,78.8,70,29.65,2.2,Calm,Calm,-,N/A,,Haze,0,2013-09-13 13:50:00
7:50 PM,87.8,78.8,75,29.68,2.2,Calm,Calm,-,N/A,,Haze,0,2013-09-13 14:20:00
8:20 PM,87.8,78.8,75,29.68,2.2,South,5.8,-,N/A,,Haze,170,2013-09-13 14:50:00
8:50 PM,87.8,78.8,75,29.71,2.2,SSE,3.5,-,N/A,,Haze,150,2013-09-13 15:20:00
9:20 PM,87.8,78.8,75,29.71,2.2,Calm,Calm,-,N/A,,Haze,0,2013-09-13 15:50:00
9:50 PM,86.0,78.8,79,29.71,2.2,Calm,Calm,-,N/A,,Haze,0,2013-09-13 16:20:00
10:20 PM,86.0,78.8,79,29.71,-9999.0,South,3.5,-,N/A,,Haze,180,2013-09-13 16:50:00
10:50 PM,86.0,78.8,79,29.71,-9999.0,WSW,5.8,-,N/A,,Haze,250,2013-09-13 17:20:00
11:20 PM,86.0,80.6,84,29.71,1.9,WSW,4.6,-,N/A,,Haze,240,2013-09-13 17:50:00
11:30 PM,86,81,81,29.73,1,South,1.2,,,,Haze,180,2013-09-13 18:00:00
11:50 PM,86.0,80.6,84,29.71,1.9,West,4.6,-,N/A,,Haze,260,2013-09-13 18:20:00